Lexington, KY

10:52 PM EST on February 12, 2016 (GMT -0500)
Blue Grass

Weather History for KLEX - September, 2011

Change the Weather History Date:

Tuesday, September 13, 2011

  Actual Average Record
Temperature  
Mean Temperature 72 °F 69 °F  
Max Temperature 84 °F 80 °F 99 °F (1939)
Min Temperature 60 °F 59 °F 40 °F (1902)
Degree Days  
Heating Degree Days 0 1  
Month to date heating degree days 19 5  
Since 1 July heating degree days 19 7  
Cooling Degree Days 7 5  
Month to date cooling degree days 89 88  
Year to date cooling degree days 1276 1105  
Growing Degree Days 22 (Base 50)    
Moisture  
Dew Point 60 °F    
Average Humidity 71    
Maximum Humidity 90    
Minimum Humidity 51    
Precipitation  
Precipitation 0.00 in 0.10 in 2.57 in (1979)
Month to date precipitation 3.09 1.27  
Year to date precipitation 46.95 32.94  
Snow  
Snow 0.00 in 0.00 in - ()
Month to date snowfall 0.0 0.0  
Since 1 July snowfall 0.0 0.0  
Since 1 September snowfall 0.0 0.0  
Snow Depth 0.00 in    
Sea Level Pressure  
Sea Level Pressure 29.99 in    
Wind  
Wind Speed 8 mph (SSW)    
Max Wind Speed 15 mph    
Max Gust Speed 20 mph    
Visibility 10 miles    
Events      
T = Trace of Precipitation, MM = Missing Value Source: NWS Daily Summary

Daily Weather History Graph

Daily Weather History Graph

Search for Another Location

Airport or City:

Trip Planner

Search our weather history database for the weather conditions in past years. The results will help you decide how hot, cold, wet, or windy it might be!

Date:

Astronomy

Sep. 13, 2011 Rise Set
Actual Time 7:18 AM EDT 7:49 PM EDT
Civil Twilight 6:51 AM EDT 8:16 PM EDT
Nautical Twilight 6:20 AM EDT 8:47 PM EDT
Astronomical Twilight 5:48 AM EDT 9:19 PM EDT
Moon 8:08 PM EDT 8:28 AM EDT
Length of Visible Light 13h 24m
Length of Day
12h 31m
Full, 99% of the Moon is Illuminated
Sep 13
Full
Sep 20
Last Quarter
Sep 27
New
Oct 3
First Quarter
Oct 11
Full

Hourly Weather History & Observations

Time (EDT) Temp. Heat Index Dew Point Humidity Pressure Visibility Wind Dir Wind Speed Gust Speed Precip Events Conditions
12:54 AM 64.4 °F - 57.2 °F 77% 30.05 in 10.0 mi South 5.8 mph - N/A   Clear
1:54 AM 64.0 °F - 57.9 °F 80% 30.03 in 10.0 mi South 5.8 mph - N/A   Clear
2:54 AM 63.0 °F - 57.9 °F 84% 30.01 in 10.0 mi SSE 6.9 mph - N/A   Clear
3:54 AM 62.1 °F - 57.9 °F 86% 30.01 in 10.0 mi SSE 6.9 mph - N/A   Clear
4:54 AM 62.1 °F - 57.9 °F 86% 30.00 in 9.0 mi South 4.6 mph - N/A   Clear
5:54 AM 61.0 °F - 57.9 °F 90% 30.00 in 9.0 mi South 8.1 mph - N/A   Clear
6:54 AM 61.0 °F - 57.0 °F 87% 30.02 in 9.0 mi South 4.6 mph - N/A   Clear
7:54 AM 62.1 °F - 57.9 °F 86% 30.04 in 8.0 mi South 5.8 mph - N/A   Clear
8:54 AM 66.0 °F - 60.1 °F 81% 30.03 in 10.0 mi SSW 6.9 mph - N/A   Clear
9:54 AM 70.0 °F - 61.0 °F 73% 30.02 in 10.0 mi SSW 8.1 mph 16.1 mph N/A   Clear
10:54 AM 75.2 °F - 62.6 °F 65% 30.04 in 10.0 mi SW 10.4 mph - N/A   Clear
11:54 AM 79.0 °F - 62.1 °F 56% 30.02 in 10.0 mi SW 9.2 mph - N/A   Clear
12:54 PM 80.1 °F 81.5 °F 63.0 °F 56% 30.01 in 10.0 mi SW 10.4 mph - N/A   Clear
1:54 PM 80.6 °F 81.5 °F 60.8 °F 51% 30.01 in 10.0 mi SSW 11.5 mph - N/A   Clear
2:54 PM 82.9 °F 84.0 °F 63.0 °F 51% 29.97 in 10.0 mi SSW 12.7 mph - N/A   Clear
3:54 PM 82.9 °F 84.0 °F 63.0 °F 51% 29.96 in 10.0 mi WSW 9.2 mph - N/A   Clear
4:54 PM 82.9 °F 83.7 °F 62.1 °F 49% 29.95 in 10.0 mi WSW 10.4 mph - N/A   Clear
5:54 PM 82.0 °F 83.0 °F 62.1 °F 51% 29.95 in 10.0 mi SW 13.8 mph - N/A   Clear
6:54 PM 80.1 °F 81.2 °F 62.1 °F 54% 29.95 in 10.0 mi SSW 10.4 mph - N/A   Clear
7:54 PM 75.2 °F - 62.6 °F 65% 29.97 in 10.0 mi SSW 6.9 mph - N/A   Clear
8:54 PM 73.9 °F - 61.0 °F 64% 29.95 in 10.0 mi South 8.1 mph - N/A   Clear
9:54 PM 73.0 °F - 61.0 °F 66% 29.96 in 10.0 mi SSW 8.1 mph - N/A   Clear
10:54 PM 71.1 °F - 61.0 °F 70% 29.96 in 10.0 mi South 8.1 mph - N/A   Clear
11:54 PM 70.0 °F - 60.1 °F 71% 29.96 in 10.0 mi South 8.1 mph - N/A   Clear